This demonstration page uses our WeatherBlox Daily Observations layout. Learn more.

Hourly Observations for August 1, 2016

Temp ( °F °C ) Dew Point ( °F °C ) Humidity (%) Winds ( mph kmh ) Pressure ( in mb ) Visibility ( mi km ) Precip ( " mm )
12:54 am 00:54 Clear 76 24.4 71 21.7 85 85 SE 10 17 29.85 1011 10 16.0934 0 0
1:32 am 01:32 Mostly Cloudy 75 24 72 22 89 89 SE 9 15 29.83 1010 10 16.0934 0 0
1:54 am 01:54 Mostly Cloudy 75 23.9 71 21.7 88 88 SE 8 13 29.83 1010 10 16.0934 0 0
2:54 am 02:54 Mostly Cloudy 74 23.3 71 21.7 91 91 SE 8 13 29.8 1009 10 16.0934 0 0
3:10 am 03:10 Partly Cloudy 73 23 72 22 94 94 ESE 6 9 29.77 1008 10 16.0934 0 0
3:54 am 03:54 Mostly Clear 73 22.8 71 21.7 94 94 ESE 5 7 29.79 1009 10 16.0934 0 0
4:29 am 04:29 Partly Cloudy 73 23 72 22 94 94 ESE 7 11 29.77 1008 10 16.0934 0 0
4:54 am 04:54 Mostly Clear 74 23.3 72 22.2 94 94 SE 9 15 29.8 1009 10 16.0934 0 0
5:13 am 05:13 Mostly Clear 74 23.3 71 21.7 91 91 SE 13 20 29.77 1008 10 16.0934 0 0
5:54 am 05:54 Clear 74 23.3 71 21.7 91 91 SSE 14 22 29.78 1009 10 16.0934 0 0
6:54 am 06:54 Sunny 75 23.9 72 22.2 90 90 S 9 15 29.79 1009 10 16.0934 0 0
7:54 am 07:54 Sunny 76 24.4 72 22.2 88 88 SE 9 15 29.83 1010 10 16.0934 0 0
8:54 am 08:54 Sunny 77 25 72 22.2 85 85 SE 13 20 29.86 1011 10 16.0934 0 0
9:51 am 09:51 Mostly Cloudy 77 25 70 21 79 79 SE 25 41 29.88 1012 10 16.0934 0 0
9:54 am 09:54 Mostly Cloudy 77 25 69 20.6 77 77 SE 22 35 29.89 1012 10 16.0934 0 0
10:16 am 10:16 Partly Cloudy 76 24.4 69 20.6 79 79 SE 21 33 29.88 1012 10 16.0934 0 0
10:31 am 10:31 Mostly Cloudy 77 25 69 20.6 77 77 SE 25 41 29.91 1013 10 16.0934 0 0
10:54 am 10:54 Cloudy 76 24.4 68 20 77 77 SE 26 43 29.93 1014 10 16.0934 0 0
11:40 am 11:40 Cloudy 77 25 66 19 69 69 SE 26 43 29.91 1013 10 16.0934 0 0
11:54 am 11:54 Cloudy 79 26.1 68 20 69 69 SE 24 39 29.93 1014 10 16.0934 0 0
12:37 pm 12:37 Mostly Sunny 82 27.8 67 19.4 60 60 SE 29 46 29.91 1013 10 16.0934 0 0
12:54 pm 12:54 Sunny 82 27.8 68 20 63 63 SSE 25 41 29.93 1013 10 16.0934 0 0
1:54 pm 13:54 Sunny 83 28.3 66 18.9 57 57 SSE 30 48 29.92 1013 10 16.0934 0 0
2:54 pm 14:54 Sunny 85 29.4 67 19.4 55 55 SE 26 43 29.91 1013 10 16.0934 0 0
3:54 pm 15:54 Sunny 87 30.6 68 20 53 53 SSE 21 33 29.9 1012 10 16.0934 0 0
4:54 pm 16:54 Sunny 87 30.6 70 21.1 57 57 S 16 26 29.87 1012 10 16.0934 0 0
5:54 pm 17:54 Sunny 87 30.6 72 22.2 61 61 S 21 33 29.84 1010 10 16.0934 0 0
6:54 pm 18:54 Sunny 86 30 73 22.8 65 65 S 18 30 29.84 1010 10 16.0934 0 0
7:54 pm 19:54 Sunny 86 30 73 22.8 65 65 SE 6 9 29.88 1012 10 16.0934 0 0
8:54 pm 20:54 Clear 83 28.3 73 22.8 72 72 E 12 19 29.91 1013 10 16.0934 0 0
9:54 pm 21:54 Clear 80 26.7 71 21.7 74 74 E 13 20 29.91 1013 10 16.0934 0 0
10:54 pm 22:54 Clear 79 26.1 71 21.7 77 77 ESE 12 19 29.92 1013 10 16.0934 0 0
11:54 pm 23:54 Clear 78 25.6 71 21.7 79 79 SE 15 24 29.92 1013 10 16.0934 0 0

Powered by AerisWeather